COSMOS 2251

Last updated on Wed Sep 09 2026 00:02:34 GMT+0000 (Coordinated Universal Time)

1 22675U 93036A 26251.52142242 .00000024 00000+0 18300-4 0 9992 2 22675 74.0402 182.9355 0025280 204.3614 155.6345 14.33268319736387
UTC large
Height (km)
Speed (km/s)
/
Latitude / Longitude
Inclination (degrees)
Orbital Period (minutes)
Azimuth
Elevation
Range (km)
Doppler Factor

Next 0 passes for location: London (51.5072 / 0.1276)

No passes found over London.
COSMOS 2251